Tracking 19246 objects as of 20-Aug-2018
HD Live streaming from Space Station
objects crossing your sky now

FENGYUN 1C DEB

Track FENGYUN 1C DEB now!
10-day predictions


NORAD ID: 29966
Int'l Code: 1999-025KQ
Perigee: 799.1 km
Apogee: 859.2 km
Inclination: 99.5 °
Period: 101.3 minutes
Semi major axis: 7200 km
RCS: 0.045 m2 (small)
Launch date: May 10, 1999
Source: People's Republic of China (PRC)
Launch site: Taiyaun Space Center, China (TSC)

Note: This is SATELLITE DEBRIS
aabbcc
Your satellite tracking list
Your tracking list is empty




NASA's NSSDC Master Catalog

Two Line Element Set (TLE):
1 29966U 99025KQ  18231.86383861  .00000122  00000-0  78975-4 0  9990
2 29966  99.4789 204.4296 0041753 332.7582  27.1403 14.20984575600746
Source of the keplerian elements: AFSPC